SES-9

Last updated on Wed Oct 15 2025 00:02:47 GMT+0000 (Coordinated Universal Time)

1 41380U 16013A 25287.00845036 .00000000 00000+0 00000+0 0 9995 2 41380 0.0097 226.0230 0001021 297.1659 330.9620 1.00268373 34978
UTC large
Height (km)
Speed (km/s)
/
Latitude / Longitude
Inclination (degrees)
Orbital Period (minutes)
Azimuth
Elevation
Range (km)
Doppler Factor

Next 0 passes for location: London (51.5072 / 0.1276)

Sorry there are no passes over London.